Regional Weather Roundup
Issued by NWS

Home | Current Version | Previous Version | Text Only | Print | Product List | Glossary On
Versions: 1 2 3 4 5 6 7 8 9 10 11 12 13 14 15 16 17 18 19 20 21 22 23 24 25 26 27 28 29 30 31 32 33 34 35 36 37 38 39 40 41 42 43 44 45 46 47 48 49 50
000
ASUS43 KDMX 251508
RWRIA

WEATHER ROUNDUP FOR IOWA
NATIONAL WEATHER SERVICE DES MOINES IA
1000 AM CDT SUN SEP 25 2016

NOTE: "FAIR" INDICATES FEW OR NO CLOUDS BELOW 12,000 FEET WITH NO
SIGNIFICANT WEATHER AND/OR OBSTRUCTIONS TO VISIBILITY.

* - THESE STATIONS ARE NOT NWS STATIONS...THUS NOT UNDER NWS
QUALITY CONTROL.  THEY ALSO DO NOT REPORT WEATHER SUCH
AS PRECIPITATION OR FOG.

IAZ001>003-012>014-020>022-031>034-043>046-251600-
   NORTHWEST IOWA

CITY           SKY/WX    TMP DP  RH WIND       PRES   REMARKS
CARROLL *      CLOUDY    59  52  77 W10G16    30.06R
CHEROKEE *     PTSUNNY   59  52  76 W9G22     30.04S
DENISON *      CLOUDY    57  50  77 W9        30.07R
LE MARS *      SUNNY     63  50  63 MISG      30.06S
ORANGE CITY *  MOSUNNY   61  50  67 W21G26    30.03S
SHELDON *      SUNNY     61  50  67 W14G22    30.00F
SIOUX CITY     SUNNY     63  50  62 NW15G23   30.07S
SPENCER        MOSUNNY   59  50  72 W15G22    30.01S
STORM LAKE *   MOSUNNY   59  50  72 W16G25    30.04S
$$

IAZ055>058-069>071-079>083-090>094-251600-
   SOUTHWEST IOWA

CITY           SKY/WX    TMP DP  RH WIND       PRES   REMARKS
ATLANTIC *     CLOUDY    59  52  77 NW7       30.11R
AUDUBON *      CLOUDY    57  52  82 NW5       30.10R
CLARINDA *       N/A     61  52  72 MISG      30.14R
COUNCIL BLFS *   N/A     59  50  72 NW10      30.13R
CRESTON *      PTSUNNY   61  55  82 NW12      30.11R
HARLAN  *      CLOUDY    59  52  77 W12       30.13S
LAMONI         CLOUDY    64  60  87 W14       30.08R
RED OAK *      CLOUDY    61  52  72 NW13      30.13R
SHENANDOAH *   CLOUDY    64  54  68 NW8G16    30.14R
$$

IAZ047>049-059>061-072>074-084-251600-
   CENTRAL IOWA

CITY           SKY/WX    TMP DP  RH WIND       PRES   REMARKS
AMES           CLOUDY    60  55  83 NW13      30.04R
ANKENY *         N/A    N/A N/A N/A MISG        N/A
BOONE *          N/A    N/A N/A N/A MISG        N/A
CHARITON *       N/A     68  64  88 NW17G24   30.04R
DES MOINES     PTSUNNY   63  53  70 NW13      30.05R
GRINNELL*      CLOUDY    69  66  92 SW9       30.01S
KNOXVILLE *    CLOUDY    70  66  88 W12       30.01R FOG
MARSHALLTOWN   LGT RAIN  69  67  93 W13G20    29.99R
NEWTON *       CLOUDY    68  68 100 W8        30.01R FOG
PELLA *        CLOUDY    70  67  89 W9        30.02R
PERRY *          N/A     61  56  84 W9        30.06R
$$

IAZ004>006-015-016-023>025-035-036-251600-
   NORTH CENTRAL IOWA

CITY           SKY/WX    TMP DP  RH WIND       PRES   REMARKS
ALGONA *       PTSUNNY   59  52  77 W10       30.00F
CLARION *      CLOUDY    61  55  82 W13G18    30.02R
ESTHERVILLE    MOSUNNY   60  51  72 W17G23    29.99S
FORT DODGE *   MOSUNNY   59  54  82 W8G16     30.03R
MASON CITY     CLOUDY    60  54  80 W15G22    29.99S
FOREST CITY *    N/A     59  57  94 W12       29.99S
WEBSTER CITY * MOSUNNY   61  55  82 W9G16     30.02R
IOWA FALLS *   CLOUDY    61  53  75 W10       30.02R
$$

IAZ007>011-017>019-026>030-037>042-050>054-066-251600-
   NORTHEAST IOWA

CITY           SKY/WX    TMP DP  RH WIND       PRES   REMARKS
CEDAR RAPIDS   MOSUNNY   75  69  81 SW15      29.98S
CHARLES CITY * CLOUDY    66  66 100 W7G20     29.96F
CLINTON *      SUNNY     76  69  79 S10       29.99F
DECORAH *      CLOUDY    68  68 100 VRB6G15   29.95F FOG
DUBUQUE        PTSUNNY   71  67  87 S12       29.99R
MONTICELLO *   MOSUNNY   75  68  78 SW9       29.98S
OELWEIN *      CLOUDY    70  68  94 SW8       29.98F
WATERLOO       CLOUDY    70  67  90 SW8       29.96S
$$

IAZ064-065-067-068-078-251600-
   EAST CENTRAL IOWA

CITY           SKY/WX    TMP DP  RH WIND       PRES   REMARKS
DAVENPORT      SUNNY     76  67  73 S9        30.00R
IOWA CITY      MOSUNNY   76  69  79 SW12      30.00S
MT. PLEASANT * MOSUNNY   81  70  69 W10       30.01S HX  84
MUSCATINE *    SUNNY     79  70  73 SW13      29.99S HX  81
QUAD CITIES    SUNNY     78  68  71 SW10      30.00R HX  80
$$

IAZ062-063-075>077-085>089-095>099-251600-
   SOUTHEAST IOWA

CITY           SKY/WX    TMP DP  RH WIND       PRES   REMARKS
BURLINGTON     SUNNY     72  70  93 SW10      30.01R
FAIRFIELD *    MOSUNNY   77  66  69 SW10      30.01R
FORT MADISON *   N/A     79  70  73 SW10      30.03R HX  81
KEOKUK *       SUNNY     79  70  73 W13       30.02R HX  81
OSKALOOSA *    PTSUNNY   74  66  77 W16       30.01R
OTTUMWA        PTSUNNY   76  65  68 SW15      30.01R
WASHINGTON *     N/A    N/A N/A N/A MISG        N/A
$$

ABBREVIATIONS USED IN REMARKS
   TC - TEMPERATURES IN CELSIUS
  WCI - WIND CHILL INDEX
   HX - HEAT INDEX
  VSB - VISIBILITY
$$




USA.gov is the U.S. government's official web portal to all federal, state and local government web resources and services.